Date String (YYYY-MM-DD hh:mm:ss) UTC,Instrument flags,Ambient pressure (hPa),Sample flow (lpm),Bypass flow (lpm),Sample temperature (°C),Ambient temperature (°C),ASC tube jacket temperature (°C),LED temperature (°C),Box temperature (°C),Sample RH (%),Span deviation,Mass concentration (μg/m³),Mass concentration (μg/m³),Mass concentration (μg/m³)
DateTimeUTC,F1_M11,P_M11,Q1_M11,Q2_M11,T1_M11,T2_M11,T3_M11,T4_M11,T5_M11,U1_M11,ZSPAN_M11,X0_M11,X2_M11,X1_M11
2022-05-05 20:00:00,,0823.4,5.01,0.00,27.5,26.9,00.0,36.2,29.4,19.2,0000.0,0008.01,0004.24,0003.57
2022-05-05 20:01:00,,0823.4,5.01,0.00,27.5,26.9,00.0,36.2,29.4,18.6,0000.0,0008.00,0004.22,0003.55
2022-05-05 20:02:00,,0823.3,5.00,0.00,27.5,26.9,00.0,36.2,29.4,18.2,0000.0,0008.67,0004.19,0003.53
2022-05-05 20:03:00,,0823.3,5.01,0.00,27.5,27.0,00.0,36.3,29.4,18.9,0000.0,0008.67,0004.17,0003.53
2022-05-05 20:04:00,,0823.3,4.99,0.00,27.5,27.0,00.0,36.3,29.4,18.0,0000.0,0008.66,0004.15,0003.51
2022-05-05 20:05:00,,0823.4,5.01,0.00,27.5,27.0,00.0,36.3,29.5,18.9,0000.0,0008.58,0004.13,0003.51
2022-05-05 20:06:00,,0823.3,5.00,0.00,27.6,27.0,00.0,36.3,29.5,18.6,0000.0,0008.64,0004.18,0003.51
2022-05-05 20:07:00,,0823.4,4.99,0.00,27.6,27.0,00.0,36.3,29.5,19.1,0000.0,0008.73,0004.22,0003.51
2022-05-05 20:08:00,,0823.3,5.01,0.00,27.6,27.1,00.0,36.4,29.5,19.3,0000.0,0008.79,0004.21,0003.50
2022-05-05 20:09:00,,0823.3,5.01,0.00,27.7,27.1,00.0,36.4,29.5,19.1,0000.0,0008.82,0004.21,0003.50
2022-05-05 20:10:00,,0823.4,4.98,0.00,27.7,27.1,00.0,36.4,29.6,18.3,0000.0,0008.79,0004.26,0003.49
2022-05-05 20:11:00,,0823.3,5.01,0.00,27.7,27.1,00.0,36.4,29.6,18.1,0000.0,0008.78,0004.30,0003.49
2022-05-05 20:12:00,,0823.4,4.99,0.00,27.7,27.1,00.0,36.4,29.6,18.0,0000.0,0008.84,0004.31,0003.49
2022-05-05 20:13:00,,0823.3,5.01,0.00,27.7,27.1,00.0,36.5,29.6,18.3,0000.0,0008.16,0004.31,0003.48
2022-05-05 20:14:00,,0823.3,5.00,0.00,27.7,27.1,00.0,36.5,29.6,18.2,0000.0,0008.09,0004.32,0003.47
2022-05-05 20:15:00,,0823.3,5.00,0.00,27.7,27.1,00.0,36.5,29.6,17.8,0000.0,0007.99,0004.28,0003.46
2022-05-05 20:16:00,,0823.3,5.01,0.00,27.7,27.2,00.0,36.5,29.6,18.3,0000.0,0008.01,0004.27,0003.45
2022-05-05 20:17:00,,0823.3,5.00,0.00,27.8,27.2,00.0,36.5,29.6,18.5,0000.0,0008.39,0004.23,0003.42
2022-05-05 20:18:00,,0823.3,5.00,0.00,27.8,27.2,00.0,36.5,29.7,18.0,0000.0,0008.27,0004.18,0003.41
2022-05-05 20:19:00,,0823.3,5.01,0.00,27.8,27.2,00.0,36.6,29.7,18.8,0000.0,0008.33,0004.19,0003.40
2022-05-05 20:20:00,,0823.2,4.99,0.00,27.8,27.2,00.0,36.6,29.7,18.7,0000.0,0008.42,0004.17,0003.40
2022-05-05 20:21:00,,0823.2,5.01,0.00,27.8,27.2,00.0,36.6,29.7,18.4,0000.0,0008.38,0004.16,0003.40
2022-05-05 20:22:00,,0823.2,5.00,0.00,27.8,27.3,00.0,36.6,29.7,17.9,0000.0,0008.37,0004.13,0003.39
2022-05-05 20:23:00,,0823.3,4.99,0.00,27.8,27.3,00.0,36.6,29.7,17.5,0000.0,0008.41,0004.13,0003.40
2022-05-05 20:24:00,,0823.2,5.01,0.00,27.8,27.3,00.0,36.7,29.8,17.9,0000.0,0008.38,0004.12,0003.40
2022-05-05 20:25:00,,0823.3,4.99,0.00,27.9,27.3,00.0,36.7,29.8,18.0,0000.0,0008.39,0004.10,0003.39
2022-05-05 20:26:00,,0823.2,5.00,0.00,27.9,27.3,00.0,36.7,29.8,18.1,0000.0,0008.43,0004.13,0003.39
2022-05-05 20:27:00,,0823.2,5.01,0.00,27.9,27.3,00.0,36.7,29.7,17.6,0000.0,0008.43,0004.15,0003.40
2022-05-05 20:28:00,,0823.2,4.99,0.00,27.9,27.3,00.0,36.7,29.8,18.1,0000.0,0007.95,0004.13,0003.41
2022-05-05 20:29:00,,0823.2,5.00,0.00,27.9,27.3,00.0,36.7,29.8,17.7,0000.0,0008.19,0004.12,0003.41
2022-05-05 20:30:00,,0823.3,5.01,0.00,27.9,27.3,00.0,36.7,29.8,17.1,0000.0,0008.29,0004.13,0003.43
2022-05-05 20:31:00,,0823.2,4.99,0.00,27.9,27.4,00.0,36.7,29.9,17.0,0000.0,0008.04,0004.16,0003.45
2022-05-05 20:32:00,,0823.2,5.00,0.00,28.0,27.4,00.0,36.8,29.9,17.4,0000.0,0007.95,0004.14,0003.47
2022-05-05 20:33:00,,0823.1,5.01,0.00,28.0,27.4,00.0,36.8,29.9,18.1,0000.0,0007.98,0004.19,0003.49
2022-05-05 20:34:00,,0823.1,4.98,0.00,28.0,27.4,00.0,36.8,29.9,17.8,0000.0,0008.07,0004.22,0003.50
2022-05-05 20:35:00,,0823.1,5.01,0.00,28.0,27.5,00.0,36.8,29.9,18.1,0000.0,0008.41,0004.24,0003.52
2022-05-05 20:36:00,,0823.1,5.00,0.00,28.0,27.5,00.0,36.8,29.9,17.8,0000.0,0008.76,0004.26,0003.54
2022-05-05 20:37:00,,0823.1,4.99,0.00,28.1,27.5,00.0,36.8,29.9,18.0,0000.0,0008.90,0004.28,0003.56
2022-05-05 20:38:00,,0823.1,5.01,0.00,28.1,27.5,00.0,36.8,30.0,18.1,0000.0,0008.89,0004.28,0003.56
2022-05-05 20:39:00,,0823.1,5.01,0.00,28.1,27.5,00.0,36.9,30.0,17.4,0000.0,0009.13,0004.30,0003.56
2022-05-05 20:40:00,,0823.1,5.00,0.00,28.1,27.5,00.0,36.9,30.0,17.2,0000.0,0009.16,0004.32,0003.57
2022-05-05 20:41:00,,0823.1,4.99,0.00,28.1,27.5,00.0,36.9,30.0,17.2,0000.0,0009.25,0004.32,0003.56
2022-05-05 20:42:00,,0823.1,5.00,0.00,28.1,27.5,00.0,36.9,30.0,17.2,0000.0,0009.70,0004.31,0003.56
2022-05-05 20:43:00,,0823.1,5.01,0.00,28.1,27.5,00.0,36.9,30.0,17.6,0000.0,0010.41,0004.33,0003.55
2022-05-05 20:44:00,,0823.1,4.98,0.00,28.1,27.6,00.0,36.9,30.0,17.4,0000.0,0010.61,0004.29,0003.53
2022-05-05 20:45:00,,0823.1,5.01,0.00,28.1,27.6,00.0,36.9,30.0,17.5,0000.0,0010.55,0004.27,0003.53
2022-05-05 20:46:00,,0823.1,4.99,0.00,28.2,27.5,00.0,37.0,30.0,18.3,0000.0,0010.21,0004.24,0003.52
2022-05-05 20:47:00,,0823.1,4.99,0.00,28.2,27.5,00.0,37.0,30.0,18.8,0000.0,0009.96,0004.23,0003.51
2022-05-05 20:48:00,,0823.1,5.01,0.00,28.2,27.6,00.0,37.0,30.0,17.7,0000.0,0009.91,0004.24,0003.50
2022-05-05 20:49:00,,0823.1,4.99,0.00,28.2,27.6,00.0,37.0,30.1,17.8,0000.0,0010.01,0004.24,0003.49
2022-05-05 20:50:00,,0823.1,5.00,0.00,28.2,27.6,00.0,37.0,30.1,17.9,0000.0,0009.75,0004.21,0003.48
2022-05-05 20:51:00,,0823.1,5.01,0.00,28.2,27.6,00.0,37.0,30.1,17.9,0000.0,0009.48,0004.19,0003.47
2022-05-05 20:52:00,,0823.1,4.99,0.00,28.2,27.6,00.0,37.0,30.1,17.7,0000.0,0009.75,0004.17,0003.46
2022-05-05 20:53:00,,0823.1,5.01,0.00,28.3,27.7,00.0,37.1,30.1,17.3,0000.0,0009.65,0004.18,0003.45
2022-05-05 20:54:00,,0823.0,4.99,0.00,28.3,27.7,00.0,37.1,30.1,17.3,0000.0,0009.18,0004.22,0003.45
2022-05-05 20:55:00,,0823.0,4.99,0.00,28.3,27.7,00.0,37.1,30.2,17.4,0000.0,0008.89,0004.23,0003.44
2022-05-05 20:56:00,,0822.9,5.01,0.00,28.3,27.7,00.0,37.1,30.2,17.8,0000.0,0008.94,0004.28,0003.43
2022-05-05 20:57:00,,0822.9,5.00,0.00,28.3,27.7,00.0,37.1,30.2,16.9,0000.0,0008.97,0004.31,0003.42
2022-05-05 20:58:00,,0822.9,5.01,0.00,28.3,27.7,00.0,37.1,30.2,17.1,0000.0,0008.89,0004.29,0003.42
2022-05-05 20:59:00,,0823.0,5.00,0.00,28.3,27.7,00.0,37.1,30.2,16.9,0000.0,0008.77,0004.25,0003.43
